Regional Weather Roundup
Issued by NWS

Home | Current Version | Previous Version | Graphics & Text | Print | Product List | Glossary On
Versions: 1 2 3 4 5 6 7 8 9 10 11 12 13 14 15 16 17 18 19 20 21 22 23 24 25 26 27
000
ASUS45 KSLC 250510
RWRUT

UTAH REGIONAL WEATHER ROUNDUP
NATIONAL WEATHER SERVICE SALT LAKE CITY UT
1100 PM MDT THU APR 24 2014

UTZ001>011-023>025-250600-

NORTHERN UTAH

CITY           SKY/WX    TMP DP  RH WIND       PRES   REMARKS
HILL AFB       MOCLDY    55  26  31 E7        29.90S
LOGAN          CLEAR     47  32  56 N8        29.89S
OGDEN          CLOUDY    58  27  30 S13       29.88S
PROVO AIRPORT  PTCLDY    54  34  47 NW12      29.88S
SALT LAKE CITY MOCLDY    54  29  38 SW7       29.86F
VERNAL         MOCLDY    50  23  34 W6        29.95R
WENDOVER       CLOUDY    57  30  35 W16       29.90S
HEBER CITY     PTCLDY    43  21  42 CALM      29.93S
WEST JORDAN    CLEAR     52  30  43 W7        29.89F

$$

UTZ012>022-026-027-250600-

SOUTHERN UTAH

CITY           SKY/WX    TMP DP  RH WIND       PRES   REMARKS
BRYCE CANYON   CLEAR     37  16  42 W12       30.05F WCI  29
CEDAR CITY     PTCLDY    50   8  18 SW7       29.94S
MILFORD        PTCLDY    56  14  19 S13       29.90R
MOAB/CYNLANDS  CLEAR     52   5  15 CALM      29.91F
PRICE          PTCLDY    45   8  22 NE6       29.96F
ST GEORGE      PTCLDY    63  10  13 SE7       29.86S
KANAB            N/A     48  14  25 CALM      29.98S

$$

REGIONAL REPORTS     COLORADO/ARIZONA

CITY           SKY/WX    TMP DP  RH WIND       PRES   REMARKS
CRAIG, CO      CLOUDY    45  27  49 CALM      30.02R
GRAND JUNCTION MOCLDY    50  16  25 E5        29.96F
RIFLE          PTCLDY    46  20  35 E3        30.01S
MONTROSE       CLOUDY    48  20  32 SE8       30.05R
CORTEZ         CLEAR     39   9  29 NE3       30.05F
PAGE, AZ       CLEAR     64  13  13 SW6       29.90S
GRAND CANYON   CLEAR     40   5  23 SW5       30.09R
KINGMAN        CLEAR     59   4  11 SE14      29.92F
FLAGSTAFF      CLEAR     42   9  25 CALM      30.11S

$$

REGIONAL REPORTS    NEVADA/IDAHO/WYOMING

CITY           SKY/WX    TMP DP  RH WIND       PRES   REMARKS
LAS VEGAS, NV  PTCLDY    76   4   6 S9        29.77R
ELY            CLOUDY    50  25  37 NW3       29.94S
ELKO           CLOUDY    53  32  44 S14       29.90R
POCATELLO, ID  CLEAR     45  39  79 SE5       29.90F
BURLEY         CLOUDY    43  40  89 SW5       29.89S
EVANSTON, WY   PTCLDY    40  21  46 SE6       29.98F
ROCK SPRINGS   MOCLDY    42  18  37 SW7       30.00F

$$



USA.gov is the U.S. government's official web portal to all federal, state and local government web resources and services.